Simultaneous Nadir Overpasses (SNOs) Predictions

Prediction of SNOs between AQUA and NOAA-19 Satellite Orbit:

Table of predicted SNOs for the next 14.0 days since TLE Epoch: 12/18/2021
Index Date (AQUA) Time (AQUA) Lat,Lon (AQUA) SZA (AQUA ) Date (NOAA-19) Time (NOAA-19) Lat,Lon (NOAA-19) SZA (NOAA-19 ) Distance(km) Time Diff (sec)
1 12/19/2021 13:23:11 -78.19, 139.75 77.88 12/19/2021 13:23:00 -78.17, 139.66 77.88 2.89 11
2 12/19/2021 14:12:39 78.23, -52.80 102.18 12/19/2021 14:13:52 78.28, -52.38 102.19 11.17 73
3 12/21/2021 18:56:57 78.16,-123.55 102.13 12/21/2021 18:55:59 78.17,-123.51 102.15 1.38 58
4 12/21/2021 19:46:24 -78.20, 43.91 77.83 12/21/2021 19:47:03 -78.20, 43.91 77.84 0.37 39
5 12/24/2021 01:20:10 78.18, 140.56 102.15 12/24/2021 01:20:03 78.17, 140.57 102.14 0.79 7
6 12/26/2021 06:53:55 -78.15,-122.75 77.93 12/26/2021 06:53:11 -78.17,-122.65 77.91 2.71 44
7 12/26/2021 07:43:23 78.20, 44.65 102.13 12/26/2021 07:44:07 78.17, 44.64 102.09 3.55 44
8 12/28/2021 13:17:08 -78.18, 141.32 77.98 12/28/2021 13:17:15 -78.15, 141.30 78.01 3.75 7
9 12/30/2021 18:50:53 78.15,-121.96 101.86 12/30/2021 18:50:16 78.12,-122.01 101.85 3.12 37



Historial Predications of SNOs between AQUA and NOAA-19
